User: anonymous   Login
Location: Deer Lake
(49.1830°N, 57.4330°W)
Time: 08:41:41
(UTC-02:-30)
Language:

Cosmos 1707 - Orbit

View from above orbital plane
View from above orbital plane
View from above satellite
View from above satellite

Ground track
Ground track

The orbit data is extracted from the following two-line orbital elements,

1 16326U 85113A   17083.72112330 +.00001291 +00000-0 +71066-4 0  9991
2 16326 082.5095 291.3150 0009499 227.9190 132.1234 15.13163679704291
Epoch (UTC): 24 March 2017 17:18:25
Eccentricity: 0.0009499
inclination: 82.5095°
perigee height: 520 km
apogee height: 533 km
right ascension of ascending node: 291.3150°
argument of perigee: 227.9190°
revolutions per day: 15.13163679
mean anomaly at epoch: 132.1234°
orbit number at epoch: 70429

The dashed part of the orbit path shows where the satellite is in the earth's shadow,  

DLR